TimeAST,TemperatureF,Dew PointF,Humidity,Sea Level PressureIn,VisibilityMPH,Wind Direction,Wind SpeedMPH,Gust SpeedMPH,PrecipitationIn,Events,Conditions,WindDirDegrees,DateUTC
12:00 AM,69.8,39.2,33,30.06,-9999.0,WNW,8.1,-,N/A,,Clear,300,2013-02-21 21:00:00
12:30 AM,68.0,42.8,40,30.06,-9999.0,WNW,6.9,-,N/A,,Clear,300,2013-02-21 21:30:00
1:00 AM,68.0,42.8,40,30.04,-9999.0,WNW,6.9,-,N/A,,Clear,300,2013-02-21 22:00:00
1:30 AM,68.0,42.8,40,30.04,-9999.0,WNW,6.9,-,N/A,,Clear,300,2013-02-21 22:30:00
2:00 AM,66.2,42.8,43,30.04,-9999.0,WNW,5.8,-,N/A,,Clear,290,2013-02-21 23:00:00
2:30 AM,66.2,42.8,43,30.04,-9999.0,WNW,6.9,-,N/A,,Clear,300,2013-02-21 23:30:00
3:00 AM,67,43,30,30.04,6,WNW,6.9,,,,,300,2013-02-22 00:00:00
3:00 AM,66.2,42.8,43,30.04,-9999.0,WNW,6.9,-,N/A,,Clear,300,2013-02-22 00:00:00
3:30 AM,66.2,42.8,43,30.04,-9999.0,WNW,6.9,-,N/A,,Clear,300,2013-02-22 00:30:00
4:00 AM,66.2,42.8,43,30.04,-9999.0,NW,6.9,-,N/A,,Clear,310,2013-02-22 01:00:00
4:30 AM,66.2,44.6,46,30.04,-9999.0,NW,4.6,-,N/A,,Clear,310,2013-02-22 01:30:00
5:00 AM,66.2,42.8,43,30.04,-9999.0,WNW,5.8,-,N/A,,Clear,300,2013-02-22 02:00:00
5:30 AM,64.4,44.6,49,30.06,-9999.0,West,3.5,-,N/A,,Clear,280,2013-02-22 02:30:00
6:00 AM,64.4,44.6,49,30.06,-9999.0,WNW,4.6,-,N/A,,Clear,290,2013-02-22 03:00:00
6:30 AM,64.4,46.4,52,30.09,-9999.0,WSW,4.6,-,N/A,,Clear,250,2013-02-22 03:30:00
7:00 AM,64.4,50.0,59,30.09,-9999.0,West,3.5,-,N/A,,Clear,260,2013-02-22 04:00:00
7:30 AM,68.0,48.2,49,30.09,-9999.0,WNW,8.1,-,N/A,,Clear,300,2013-02-22 04:30:00
8:00 AM,68.0,48.2,49,30.12,-9999.0,NW,9.2,-,N/A,,Clear,310,2013-02-22 05:00:00
9:00 AM,71,47,31,30.14,6,NW,9.2,,,,,310,2013-02-22 06:00:00
9:00 AM,71.6,46.4,41,30.12,-9999.0,NW,9.2,-,N/A,,Clear,310,2013-02-22 06:00:00
10:00 AM,75.2,44.6,34,30.12,-9999.0,NNW,11.5,-,N/A,,Clear,340,2013-02-22 07:00:00
11:00 AM,78.8,39.2,24,30.12,-9999.0,NNW,13.8,-,N/A,,Clear,340,2013-02-22 08:00:00
12:00 PM,78.8,41.0,26,30.09,-9999.0,North,15.0,-,N/A,,Clear,360,2013-02-22 09:00:00
12:30 PM,78.8,41.0,26,30.06,-9999.0,North,16.1,-,N/A,,Clear,10,2013-02-22 09:30:00
1:00 PM,77.0,46.4,34,30.06,-9999.0,North,13.8,-,N/A,,Clear,10,2013-02-22 10:00:00
1:30 PM,78.8,48.2,34,30.04,-9999.0,North,15.0,-,N/A,,Clear,10,2013-02-22 10:30:00
2:00 PM,77.0,48.2,36,30.04,-9999.0,NNE,13.8,-,N/A,,Clear,20,2013-02-22 11:00:00
2:30 PM,77.0,50.0,39,30.04,-9999.0,NNE,9.2,-,N/A,,Clear,20,2013-02-22 11:30:00
3:00 PM,77,48,25,30.05,10,North,10.4,,,,,10,2013-02-22 12:00:00
3:00 PM,77.0,48.2,36,30.04,-9999.0,North,10.4,-,N/A,,Clear,10,2013-02-22 12:00:00
3:30 PM,78.8,41.0,26,30.04,-9999.0,NNW,10.4,-,N/A,,Clear,330,2013-02-22 12:30:00
4:00 PM,78.8,37.4,23,30.04,-9999.0,NW,9.2,-,N/A,,Clear,310,2013-02-22 13:00:00
4:30 PM,77.0,39.2,26,30.04,-9999.0,NW,9.2,-,N/A,,Clear,310,2013-02-22 13:30:00
5:00 PM,77.0,37.4,24,30.06,-9999.0,NW,9.2,-,N/A,,Clear,310,2013-02-22 14:00:00
5:30 PM,75.2,33.8,22,30.06,-9999.0,WNW,11.5,-,N/A,,Clear,300,2013-02-22 14:30:00
6:00 PM,75.2,39.2,27,30.06,-9999.0,NW,9.2,-,N/A,,Clear,320,2013-02-22 15:00:00
6:30 PM,73.4,37.4,27,30.06,-9999.0,NW,6.9,-,N/A,,Clear,320,2013-02-22 15:30:00
7:00 PM,71.6,39.2,31,30.06,-9999.0,NNW,11.5,-,N/A,,Clear,340,2013-02-22 16:00:00
7:30 PM,69.8,46.4,43,30.06,-9999.0,NNW,9.2,-,N/A,,Clear,340,2013-02-22 16:30:00
8:00 PM,68.0,50.0,52,30.06,-9999.0,NNW,10.4,-,N/A,,Clear,340,2013-02-22 17:00:00
8:30 PM,68.0,50.0,52,30.06,-9999.0,North,10.4,-,N/A,,Clear,360,2013-02-22 17:30:00
9:00 PM,72,67,79,30.09,7,NE,4.6,,,,Clear,50,2013-02-22 18:00:00
9:00 PM,68.0,51.8,56,30.06,-9999.0,North,9.2,-,N/A,,Clear,360,2013-02-22 18:00:00
9:30 PM,68.0,55.4,64,30.06,-9999.0,North,10.4,-,N/A,,Clear,360,2013-02-22 18:30:00
10:00 PM,66.2,55.4,68,30.06,-9999.0,North,9.2,-,N/A,,Clear,360,2013-02-22 19:00:00
10:30 PM,66.2,55.4,68,30.06,-9999.0,North,8.1,-,N/A,,Clear,360,2013-02-22 19:30:00
11:00 PM,66.2,55.4,68,30.06,-9999.0,North,5.8,-,N/A,,Clear,360,2013-02-22 20:00:00